Regional Weather Roundup
Issued by NWS Cleveland, OH

Home | Current Version | Previous Version | Graphics & Text | Print | Product List | Glossary On
Versions: 1 2 3 4 5 6 7 8 9 10 11 12 13 14 15 16 17 18 19 20 21 22 23 24 25 26 27 28 29 30 31 32 33 34 35 36 37 38 39 40 41 42 43 44 45 46 47 48 49 50
000
ASUS41 KCLE 260602
RWRCLE
OHIO REGIONAL WEATHER ROUNDUP
NATIONAL WEATHER SERVICE CLEVELAND, OH
100 AM EST FRI DEC 26 2014

NOTE: "FAIR" INDICATES FEW OR NO CLOUDS BELOW 12,000 FEET WITH NO
SIGNIFICANT WEATHER AND/OR OBSTRUCTIONS TO VISIBILITY.

OHZ001>008-015>018-024>027-034-035-043-044-260700-
   NORTHWEST OHIO

CITY           SKY/WX    TMP DP  RH WIND       PRES   REMARKS
DEFIANCE       PTCLDY    34  30  85 S8        30.14R WCI  27
FINDLAY        PTCLDY    31  28  89 S8        30.13S WCI  23
TOLEDO EXPRESS CLOUDY    33  29  85 S8        30.12F WCI  26
TOLEDO EXEC    MOCLDY    35  29  78 S10       30.14S WCI  27
LIMA           CLEAR     36  30  79 S9        30.14R
$$

OHZ009>014-019>023-028>033-038-089-260700-
   NORTHEAST OHIO

CITY           SKY/WX    TMP DP  RH WIND       PRES   REMARKS
CLE-HOPKINS    PTCLDY    36  29  75 S10       30.17F
CLE-LAKEFRONT  CLEAR     37  29  72 S10       30.15F
CUY CO. ARPT   NOT AVBL
LORAIN-ELYRIA  CLEAR     34  29  82 S9        30.15F WCI  27
ASHTABULA      CLEAR     34  27  75 SW6       30.17S WCI  29
AKRON-CANTON   CLOUDY    37  29  72 SW10      30.16F
WOOSTER        CLEAR     34  29  82 S7        30.16F WCI  28
MANSFIELD      CLEAR     32  28  85 S8        30.14F WCI  25
YOUNGSTOWN     CLOUDY    37  28  70 SW8       30.16F
$$

OHZ042-051>053-060>062-070>072-077>081-260700-
  SOUTHWEST OHIO

CITY           SKY/WX    TMP DP  RH WIND       PRES   REMARKS
CINC-COVINGTON CLEAR     29  24  82 SE6       30.17S WCI  23
CINC-LUNKEN    FOG       26  26 100 CALM      30.21S VSB 1
HAMILTON       CLEAR     27  25  92 SE3       30.18F
DAYTON         CLEAR     34  30  85 S8        30.16F WCI  27
WRIGHT-PAT AFB CLEAR     29  27  93 SE3       30.17S
DAYTON GENERAL CLEAR     33  29  85 S7        30.16S WCI  27
WILMINGTON     CLEAR     32  28  85 S5        30.17S WCI  27
$$

OHZ036-037-039>041-045>050-054>059-063>069-073>076-082>088-260700-
  CENTRAL AND SOUTHEAST OHIO

CITY           SKY/WX    TMP DP  RH WIND       PRES   REMARKS
COLUMBUS       CLEAR     33  28  81 S5        30.19R WCI  29
OSU AIRPORT    CLEAR     34  29  82 S8        30.18R WCI  27
BOLTON FIELD   NOT AVBL
RICKENBACK AFB NOT AVBL
NEWARK         CLEAR     34  28  79 S5        30.18R WCI  30
MARION         CLEAR     32  28  85 S9        30.16S WCI  24
LANCASTER      CLEAR     28  25  88 CALM      30.20R
ZANESVILLE     CLEAR     33  27  78 SE5       30.19S WCI  29
NEW PHILLY     CLOUDY    39  29  67 SW6       30.20F
$$


USA.gov is the U.S. government's official web portal to all federal, state and local government web resources and services.